Satellite-Ground Cal/Val Site Overpasses Predictions

Prediction of Satellite NPP Overpassing Cal/Val Site: Antarctic Dome C

Ground Cal/Val Site Location: Latitude: -75.10, Longitude: 123.35; Satellite-Ground Site NADIR distance within 100 km.

Table of predicted overpasses for the next 14.0 days since TLE Epoch: 1/26/2017
Interval Starting Time Ending Time Minimum Distance Time Minimum Distance (km)
1 01/29/2017 14:55:12 01/29/2017 14:55:40 01/29/2017 14:55:26 22.34
2 01/30/2017 14:36:28 01/30/2017 14:36:43 01/30/2017 14:36:36 84.75
3 01/31/2017 07:38:01 01/31/2017 07:38:28 01/31/2017 07:38:15 38.05
4 02/01/2017 07:19:15 02/01/2017 07:19:35 02/01/2017 07:19:25 71.98
5 02/03/2017 15:01:29 02/03/2017 15:01:52 02/03/2017 15:01:41 59.34
6 02/04/2017 14:42:37 02/04/2017 14:43:03 02/04/2017 14:42:50 49.97
7 02/05/2017 07:44:19 02/05/2017 07:44:39 02/05/2017 07:44:29 73.04
8 02/06/2017 07:25:25 02/06/2017 07:25:52 02/06/2017 07:25:38 34.88
9 02/08/2017 15:07:51 02/08/2017 15:07:57 02/08/2017 15:07:54 96.86


NCC Satellite Cal/Val Overpasses Prediction Service
